Powrót do katalogu

KORSAT-1

AktywnyŁącznośćVLEO
NORAD 59452·PAYLOAD·🇰🇷 South Korea

Wystrzelony Apr 7, 2024 z Cape Canaveral Space Force Station

Loading…

Następne Przeloty (najbliższe 24 godziny)

TLE

ŚwieżeSource: Space-Track

Epoka: Sep 14, 2026, 13:48 UTC

1 59452U 24066L   26257.57516764  .00002544  00000-0  22787-3 0  9990
2 59452  45.4108 141.1224 0005904 192.5142 167.5590 14.98578813133460

Śledź KORSAT-1 w czasie rzeczywistym z AllMySat

Download on the App Store